{"data":{"norad_id":57289,"intl_designator":"2023-095B","name":"HULIANWANG JISHU SHIYAN*","alt_names":[],"object_type":"PAYLOAD","status":"ACTIVE","operator":null,"country":"PRC","launch_date":"2023-07-09","launch_site_code":"JSC","launch_vehicle":null,"mission":null,"orbit_class":"UNKNOWN","rcs_meters":null,"size_class":null,"mass_kg":null,"dimensions":null,"purposes":[],"wikipedia_slug":null,"has_3d_model":false,"image_url":null,"decayed_at":null,"tle_current":{"epoch":"2026-05-25T04:01:15.350592Z","epoch_age_seconds":67518,"freshness":"FRESH","line1":"1 57289U 23095B   26145.16753878  .00000035  00000+0  37537-4 0  9999","line2":"2 57289  86.5048  12.7527 0014525 251.6278 108.3285 13.39549363140677","mean_motion":13.39549363,"eccentricity":0.0014525,"inclination_deg":86.5048,"raan_deg":12.7527,"arg_perigee_deg":251.6278,"mean_anomaly_deg":108.3285,"bstar":3.7537e-5,"rev_number":14067,"period_min":107.49883802528,"perigee_km":1100.0804368192,"apogee_km":1121.8362588046,"semimajor_km":7489.0953478119,"source":"CELESTRAK","updated_at":"2026-05-25T13:37:59.988057Z"}}}